Meath Environmental Platform

Observations for Trim Market St

Time AQI Temp °C Hum % Pres Pa CO μg/m³ H₂S μg/m³ NO μg/m³ NO₂ μg/m³ O₃ μg/m³ SO₂ μg/m³ PM1 μg/m³ PM2.5 μg/m³ PM10 μg/m³
Tuesday 25 August 2026
22:07 2 16.9 83 2,147,483,647 0.32 0 2.47 22.58 34.1 0 6.41 8.54 13.6
22:02 3 16.9 83 2,147,483,647 0.32 0 1.06 27.69 30.53 0 7.13 8.07 12.49
22:01 3 16.9 83 2,147,483,647 0.31 0 1.03 20.39 38.22 0 7.84 8.07 12.49
22:00 3 16.9 83 2,147,483,647 0.31 0 1.08 23.02 30.92 0 9.26 11.82 16.36
21:59 3 16.9 83 2,147,483,647 0.3 0 1.15 23.49 35.03 0 8.55 9.95 15.26
21:58 3 16.9 83 2,147,483,647 0.31 0 1.06 21.71 33.46 0 7.84 8.55 13.6
21:57 3 16.9 83 2,147,483,647 0.31 0 1.13 23.02 38.57 0 8.55 9.48 16.36
21:56 3 16.9 82 2,147,483,647 0.31 0 1.43 31.71 44.67 0 7.13 9.02 14.16
21:53 3 16.9 82 2,147,483,647 0.33 0 1.76 26.91 31.79 0 7.13 7.62 13.61
21:51 3 16.9 82 2,147,483,647 0.35 0 1.78 42.25 17.1 0 7.84 9.5 14.72
21:50 3 16.9 82 2,147,483,647 0.32 0 1.83 26.39 31.41 0 7.13 8.09 12.51
21:46 3 16.9 82 2,147,483,647 0.35 0 1.25 31.07 27.5 0 9.26 11.38 16.4
21:38 3 16.9 82 2,147,483,647 0.31 0 1.5 32.79 26.84 0 9.98 11.89 18.12
21:37 3 16.9 82 2,147,483,647 0.29 0 1.6 34.75 37.88 0 9.98 11.9 18.13
21:35 3 16.9 82 2,147,483,647 0.31 0 1.45 26.87 33.63 0 7.13 7.68 12
21:31 3 16.9 81 2,147,483,647 0.3 0 1.34 27.82 34.19 0 9.26 11.44 18.71
21:30 3 16.9 81 2,147,483,647 0.29 0 1.34 25.32 36.58 0 6.41 7.22 12.01
21:29 3 16.9 81 2,147,483,647 0.31 0 1.33 29.43 30.02 0 9.26 10.04 15.37
21:28 3 16.9 81 2,147,483,647 0.3 0 1.4 37.89 22.9 0 6.41 9.11 14.25
21:27 3 16.9 81 2,147,483,647 0.29 0 1.49 24.32 39.08 0 7.84 8.64 14.25